Time,TemperatureF,DewpointF,PressureIn,WindDirection,WindDirectionDegrees,WindSpeedMPH,WindSpeedGustMPH,Humidity,HourlyPrecipIn,Conditions,Clouds,dailyrainin,SoftwareType,DateUTC
2013-03-18 00:05:00,63.4,52.7,29.67,SSW,204,1.0,2.0,68,0.00,,,0.00,Wunderground v.1.15,2013-03-18 05:05:00,
2013-03-18 00:11:00,63.7,53.7,29.67,South,177,1.0,2.0,70,0.00,,,0.00,Wunderground v.1.15,2013-03-18 05:11:00,
2013-03-18 00:17:00,63.8,55.0,29.67,ESE,122,1.0,2.0,73,0.00,,,0.00,Wunderground v.1.15,2013-03-18 05:17:00,
2013-03-18 00:22:00,64.0,55.9,29.67,SE,146,1.0,3.0,75,0.00,,,0.00,Wunderground v.1.15,2013-03-18 05:22:00,
2013-03-18 00:28:00,64.0,56.3,29.67,SW,224,2.0,3.0,76,0.00,,,0.00,Wunderground v.1.15,2013-03-18 05:28:00,
2013-03-18 00:33:00,63.7,57.1,29.67,SW,234,2.0,3.0,79,0.00,,,0.00,Wunderground v.1.15,2013-03-18 05:33:00,
2013-03-18 00:39:00,63.8,57.5,29.68,West,264,3.0,4.0,80,0.00,,,0.00,Wunderground v.1.15,2013-03-18 05:39:00,
2013-03-18 00:45:00,63.1,56.5,29.68,SW,219,3.0,4.0,79,0.00,,,0.00,Wunderground v.1.15,2013-03-18 05:45:00,
2013-03-18 00:52:00,62.8,57.2,29.68,SW,228,3.0,3.0,82,0.00,,,0.00,Wunderground v.1.15,2013-03-18 05:52:00,
2013-03-18 00:58:00,62.9,58.0,29.68,SW,217,3.0,5.0,84,0.00,,,0.00,Wunderground v.1.15,2013-03-18 05:58:00,
2013-03-18 01:04:00,62.9,58.0,29.68,SW,214,3.0,4.0,84,0.00,,,0.00,Wunderground v.1.15,2013-03-18 06:04:00,
2013-03-18 01:09:00,63.0,58.4,29.68,SSW,208,4.0,5.0,85,0.00,,,0.00,Wunderground v.1.15,2013-03-18 06:09:00,
2013-03-18 01:15:00,63.2,58.9,29.68,SSW,201,4.0,6.0,86,0.00,,,0.00,Wunderground v.1.15,2013-03-18 06:15:00,
2013-03-18 01:21:00,63.4,59.5,29.68,SW,215,5.0,7.0,87,0.00,,,0.00,Wunderground v.1.15,2013-03-18 06:21:00,
2013-03-18 01:26:00,63.7,60.1,29.68,SSW,211,6.0,7.0,88,0.00,,,0.00,Wunderground v.1.15,2013-03-18 06:26:00,
2013-03-18 01:32:00,63.8,60.2,29.68,SW,223,6.0,7.0,88,0.00,,,0.00,Wunderground v.1.15,2013-03-18 06:32:00,
2013-03-18 01:38:00,63.7,60.1,29.68,SW,221,6.0,7.0,88,0.00,,,0.00,Wunderground v.1.15,2013-03-18 06:38:00,
2013-03-18 01:44:00,63.6,60.3,29.68,SW,217,6.0,6.0,89,0.00,,,0.00,Wunderground v.1.15,2013-03-18 06:44:00,
2013-03-18 01:49:00,63.5,60.2,29.68,SSW,211,6.0,7.0,89,0.00,,,0.00,Wunderground v.1.15,2013-03-18 06:49:00,
2013-03-18 01:55:00,63.5,60.5,29.68,SW,217,6.0,9.0,90,0.00,,,0.00,Wunderground v.1.15,2013-03-18 06:55:00,
2013-03-18 02:00:00,63.6,60.6,29.68,SW,225,6.0,7.0,90,0.00,,,0.00,Wunderground v.1.15,2013-03-18 07:00:00,
2013-03-18 02:06:00,63.5,60.8,29.68,SSW,200,5.0,7.0,91,0.00,,,0.00,Wunderground v.1.15,2013-03-18 07:06:00,
2013-03-18 02:12:00,63.4,60.7,29.68,SSW,211,5.0,5.0,91,0.00,,,0.00,Wunderground v.1.15,2013-03-18 07:12:00,
2013-03-18 02:18:00,63.5,61.1,29.67,SSW,212,5.0,7.0,92,0.00,,,0.00,Wunderground v.1.15,2013-03-18 07:18:00,
2013-03-18 02:23:00,63.5,61.1,29.68,SSW,208,5.0,6.0,92,0.00,,,0.00,Wunderground v.1.15,2013-03-18 07:23:00,
2013-03-18 02:28:00,63.4,61.0,29.68,SW,215,5.0,6.0,92,0.00,,,0.00,Wunderground v.1.15,2013-03-18 07:28:00,
2013-03-18 02:33:00,63.4,61.3,29.67,SW,235,5.0,8.0,93,0.00,,,0.00,Wunderground v.1.15,2013-03-18 07:33:00,
2013-03-18 02:39:00,63.5,61.1,29.67,SSW,199,6.0,8.0,92,0.00,,,0.00,Wunderground v.1.15,2013-03-18 07:39:00,
2013-03-18 02:44:00,63.5,61.4,29.68,SSW,210,5.0,7.0,93,0.00,,,0.00,Wunderground v.1.15,2013-03-18 07:44:00,
2013-03-18 02:50:00,63.6,61.5,29.67,SW,221,5.0,6.0,93,0.00,,,0.00,Wunderground v.1.15,2013-03-18 07:50:00,
2013-03-18 02:56:00,63.6,61.5,29.67,SW,226,5.0,6.0,93,0.00,,,0.00,Wunderground v.1.15,2013-03-18 07:56:00,
2013-03-18 03:02:00,63.8,61.7,29.68,WSW,239,6.0,10.0,93,0.00,,,0.00,Wunderground v.1.15,2013-03-18 08:02:00,
2013-03-18 03:08:00,63.9,61.8,29.67,SW,228,8.0,10.0,93,0.00,,,0.00,Wunderground v.1.15,2013-03-18 08:08:00,
2013-03-18 03:14:00,63.9,61.8,29.67,SW,215,8.0,10.0,93,0.00,,,0.00,Wunderground v.1.15,2013-03-18 08:14:00,
2013-03-18 03:20:00,63.9,61.8,29.67,SSW,212,8.0,8.0,93,0.00,,,0.00,Wunderground v.1.15,2013-03-18 08:20:00,
2013-03-18 03:26:00,63.9,61.8,29.67,SW,226,9.0,12.0,93,0.00,,,0.00,Wunderground v.1.15,2013-03-18 08:26:00,
2013-03-18 03:31:00,64.0,61.9,29.67,SW,235,11.0,13.0,93,0.00,,,0.00,Wunderground v.1.15,2013-03-18 08:31:00,
2013-03-18 03:37:00,64.0,61.9,29.67,SW,228,11.0,13.0,93,0.00,,,0.00,Wunderground v.1.15,2013-03-18 08:37:00,
2013-03-18 03:43:00,64.0,61.9,29.67,SSW,204,11.0,15.0,93,0.00,,,0.00,Wunderground v.1.15,2013-03-18 08:43:00,
2013-03-18 03:49:00,63.9,61.8,29.67,SW,229,11.0,15.0,93,0.00,,,0.00,Wunderground v.1.15,2013-03-18 08:49:00,
2013-03-18 03:54:00,63.8,61.7,29.67,SW,222,10.0,12.0,93,0.00,,,0.00,Wunderground v.1.15,2013-03-18 08:54:00,
2013-03-18 04:00:00,63.8,62.0,29.68,SW,226,11.0,13.0,94,0.00,,,0.00,Wunderground v.1.15,2013-03-18 09:00:00,
2013-03-18 04:05:00,63.7,61.9,29.67,SW,222,10.0,13.0,94,0.00,,,0.00,Wunderground v.1.15,2013-03-18 09:05:00,
2013-03-18 04:10:00,63.6,61.8,29.67,SW,216,9.0,9.0,94,0.00,,,0.00,Wunderground v.1.15,2013-03-18 09:10:00,
2013-03-18 04:17:00,63.5,61.7,29.68,SW,229,7.0,10.0,94,0.00,,,0.00,Wunderground v.1.15,2013-03-18 09:17:00,
2013-03-18 04:23:00,63.5,62.0,29.68,SSW,208,7.0,10.0,95,0.00,,,0.00,Wunderground v.1.15,2013-03-18 09:23:00,
2013-03-18 04:29:00,63.4,61.9,29.68,SW,214,8.0,10.0,95,0.00,,,0.00,Wunderground v.1.15,2013-03-18 09:29:00,
2013-03-18 04:34:00,63.4,61.9,29.68,SW,224,8.0,11.0,95,0.00,,,0.00,Wunderground v.1.15,2013-03-18 09:34:00,
2013-03-18 04:40:00,63.5,62.0,29.68,SSW,201,8.0,8.0,95,0.00,,,0.00,Wunderground v.1.15,2013-03-18 09:40:00,
2013-03-18 04:46:00,63.6,62.1,29.68,SSW,210,8.0,11.0,95,0.00,,,0.00,Wunderground v.1.15,2013-03-18 09:46:00,
2013-03-18 04:52:00,63.7,62.2,29.68,SW,226,8.0,11.0,95,0.00,,,0.00,Wunderground v.1.15,2013-03-18 09:52:00,
2013-03-18 04:58:00,63.9,62.4,29.68,SW,224,10.0,12.0,95,0.00,,,0.00,Wunderground v.1.15,2013-03-18 09:58:00,
2013-03-18 05:03:00,63.9,62.4,29.68,West,264,10.0,13.0,95,0.00,,,0.00,Wunderground v.1.15,2013-03-18 10:03:00,
2013-03-18 05:08:00,64.0,62.5,29.68,SW,236,10.0,13.0,95,0.00,,,0.00,Wunderground v.1.15,2013-03-18 10:08:00,
2013-03-18 05:13:00,64.0,62.5,29.68,SW,232,11.0,14.0,95,0.00,,,0.00,Wunderground v.1.15,2013-03-18 10:13:00,
2013-03-18 05:19:00,64.0,62.5,29.68,WSW,246,11.0,14.0,95,0.00,,,0.00,Wunderground v.1.15,2013-03-18 10:19:00,
2013-03-18 05:25:00,64.1,62.6,29.68,SW,225,11.0,17.0,95,0.00,,,0.00,Wunderground v.1.15,2013-03-18 10:25:00,
2013-03-18 05:30:00,63.9,62.4,29.68,SW,223,11.0,13.0,95,0.00,,,0.00,Wunderground v.1.15,2013-03-18 10:30:00,
2013-03-18 05:36:00,63.9,62.4,29.68,SW,222,11.0,13.0,95,0.00,,,0.00,Wunderground v.1.15,2013-03-18 10:36:00,
2013-03-18 05:42:00,63.8,62.3,29.68,SW,226,11.0,11.0,95,0.00,,,0.00,Wunderground v.1.15,2013-03-18 10:42:00,
2013-03-18 05:47:00,63.8,62.3,29.68,SW,236,12.0,14.0,95,0.00,,,0.00,Wunderground v.1.15,2013-03-18 10:47:00,
2013-03-18 05:52:00,63.7,62.2,29.68,SW,229,11.0,17.0,95,0.00,,,0.00,Wunderground v.1.15,2013-03-18 10:52:00,
2013-03-18 05:58:00,63.8,62.3,29.68,WSW,248,11.0,17.0,95,0.00,,,0.00,Wunderground v.1.15,2013-03-18 10:58:00,
2013-03-18 06:04:00,63.8,62.3,29.68,SW,233,12.0,15.0,95,0.00,,,0.00,Wunderground v.1.15,2013-03-18 11:04:00,
2013-03-18 06:10:00,63.8,62.3,29.68,WSW,245,12.0,12.0,95,0.00,,,0.00,Wunderground v.1.15,2013-03-18 11:10:00,
2013-03-18 06:15:00,63.7,62.2,29.68,SW,236,11.0,12.0,95,0.00,,,0.00,Wunderground v.1.15,2013-03-18 11:15:00,
2013-03-18 06:21:00,63.7,62.2,29.68,WSW,243,10.0,10.0,95,0.00,,,0.00,Wunderground v.1.15,2013-03-18 11:21:00,
2013-03-18 06:27:00,63.6,62.1,29.68,SW,217,11.0,12.0,95,0.00,,,0.00,Wunderground v.1.15,2013-03-18 11:27:00,
2013-03-18 06:32:00,63.6,62.1,29.68,SW,217,11.0,12.0,95,0.00,,,0.00,Wunderground v.1.15,2013-03-18 11:32:00,
2013-03-18 06:37:00,63.6,62.1,29.69,SW,233,11.0,13.0,95,0.00,,,0.00,Wunderground v.1.15,2013-03-18 11:37:00,
2013-03-18 06:43:00,63.7,62.2,29.69,SW,226,11.0,12.0,95,0.00,,,0.00,Wunderground v.1.15,2013-03-18 11:43:00,
2013-03-18 06:48:00,63.7,62.2,29.69,SW,236,11.0,12.0,95,0.00,,,0.00,Wunderground v.1.15,2013-03-18 11:48:00,
2013-03-18 06:54:00,63.5,62.0,29.69,WSW,252,11.0,12.0,95,0.00,,,0.00,Wunderground v.1.15,2013-03-18 11:54:00,
2013-03-18 07:00:00,63.5,62.0,29.69,WSW,256,11.0,11.0,95,0.00,,,0.00,Wunderground v.1.15,2013-03-18 12:00:00,
2013-03-18 07:05:00,63.4,61.9,29.69,SW,233,10.0,14.0,95,0.00,,,0.00,Wunderground v.1.15,2013-03-18 12:05:00,
2013-03-18 07:11:00,63.4,61.9,29.69,West,260,11.0,14.0,95,0.00,,,0.00,Wunderground v.1.15,2013-03-18 12:11:00,
2013-03-18 07:17:00,63.3,61.8,29.70,WSW,250,10.0,14.0,95,0.00,,,0.00,Wunderground v.1.15,2013-03-18 12:17:00,
2013-03-18 07:22:00,63.2,61.7,29.70,WSW,250,9.0,10.0,95,0.00,,,0.00,Wunderground v.1.15,2013-03-18 12:22:00,
2013-03-18 07:28:00,63.2,61.7,29.70,WSW,243,10.0,12.0,95,0.00,,,0.00,Wunderground v.1.15,2013-03-18 12:28:00,
2013-03-18 07:34:00,63.2,61.7,29.70,WSW,255,10.0,13.0,95,0.00,,,0.00,Wunderground v.1.15,2013-03-18 12:34:00,
2013-03-18 07:39:00,63.1,61.6,29.70,SW,231,10.0,13.0,95,0.00,,,0.00,Wunderground v.1.15,2013-03-18 12:39:00,
2013-03-18 07:44:00,63.0,61.5,29.71,SW,236,9.0,11.0,95,0.00,,,0.00,Wunderground v.1.15,2013-03-18 12:44:00,
2013-03-18 07:50:00,62.9,61.4,29.71,SW,233,9.0,9.0,95,0.00,,,0.00,Wunderground v.1.15,2013-03-18 12:50:00,
2013-03-18 07:55:00,62.9,61.4,29.71,WSW,248,9.0,9.0,95,0.00,,,0.00,Wunderground v.1.15,2013-03-18 12:55:00,
2013-03-18 08:00:00,62.9,61.4,29.71,WSW,243,9.0,10.0,95,0.00,,,0.00,Wunderground v.1.15,2013-03-18 13:00:00,
2013-03-18 08:05:00,63.0,61.5,29.71,SW,236,10.0,13.0,95,0.00,,,0.00,Wunderground v.1.15,2013-03-18 13:05:00,
2013-03-18 08:10:00,63.1,61.6,29.71,WSW,252,10.0,11.0,95,0.00,,,0.00,Wunderground v.1.15,2013-03-18 13:10:00,
2013-03-18 08:15:00,63.2,61.4,29.71,WSW,245,11.0,13.0,94,0.00,,,0.00,Wunderground v.1.15,2013-03-18 13:15:00,
2013-03-18 08:21:00,63.4,61.6,29.71,WSW,252,11.0,12.0,94,0.00,,,0.00,Wunderground v.1.15,2013-03-18 13:21:00,
2013-03-18 08:26:00,63.6,61.8,29.72,SW,236,10.0,12.0,94,0.00,,,0.00,Wunderground v.1.15,2013-03-18 13:26:00,
2013-03-18 08:32:00,63.8,61.7,29.72,WSW,241,10.0,10.0,93,0.00,,,0.00,Wunderground v.1.15,2013-03-18 13:32:00,
2013-03-18 08:38:00,64.2,62.1,29.72,WSW,249,10.0,13.0,93,0.00,,,0.00,Wunderground v.1.15,2013-03-18 13:38:00,
2013-03-18 08:43:00,64.5,62.1,29.72,West,266,10.0,11.0,92,0.00,,,0.00,Wunderground v.1.15,2013-03-18 13:43:00,
2013-03-18 08:48:00,64.8,62.4,29.72,WSW,255,10.0,11.0,92,0.00,,,0.00,Wunderground v.1.15,2013-03-18 13:48:00,
2013-03-18 08:53:00,65.0,62.3,29.72,WSW,249,11.0,13.0,91,0.00,,,0.00,Wunderground v.1.15,2013-03-18 13:53:00,
2013-03-18 08:58:00,65.4,62.7,29.73,WSW,255,11.0,13.0,91,0.00,,,0.00,Wunderground v.1.15,2013-03-18 13:58:00,
2013-03-18 09:03:00,65.8,62.8,29.73,WSW,257,10.0,13.0,90,0.00,,,0.00,Wunderground v.1.15,2013-03-18 14:03:00,
2013-03-18 09:08:00,66.2,62.5,29.73,WSW,253,10.0,13.0,88,0.00,,,0.00,Wunderground v.1.15,2013-03-18 14:08:00,
2013-03-18 09:14:00,66.7,62.7,29.73,West,264,10.0,13.0,87,0.00,,,0.00,Wunderground v.1.15,2013-03-18 14:14:00,
2013-03-18 09:19:00,67.1,62.4,29.74,WSW,239,10.0,13.0,85,0.00,,,0.00,Wunderground v.1.15,2013-03-18 14:19:00,
2013-03-18 09:24:00,67.5,62.5,29.74,West,262,10.0,11.0,84,0.00,,,0.00,Wunderground v.1.15,2013-03-18 14:24:00,
2013-03-18 09:29:00,67.9,62.2,29.75,West,271,10.0,11.0,82,0.00,,,0.00,Wunderground v.1.15,2013-03-18 14:29:00,
2013-03-18 09:35:00,68.5,62.1,29.75,West,267,10.0,11.0,80,0.00,,,0.00,Wunderground v.1.15,2013-03-18 14:35:00,
2013-03-18 09:40:00,69.1,61.6,29.74,WNW,294,10.0,11.0,77,0.00,,,0.00,Wunderground v.1.15,2013-03-18 14:40:00,
2013-03-18 09:46:00,69.5,60.1,29.75,West,275,9.0,12.0,72,0.00,,,0.00,Wunderground v.1.15,2013-03-18 14:46:00,
2013-03-18 09:52:00,69.9,59.3,29.75,West,275,10.0,11.0,69,0.00,,,0.00,Wunderground v.1.15,2013-03-18 14:52:00,
2013-03-18 09:58:00,70.7,56.6,29.75,WNW,284,10.0,14.0,61,0.00,,,0.00,Wunderground v.1.15,2013-03-18 14:58:00,
2013-03-18 10:03:00,71.2,58.0,29.75,WNW,287,10.0,13.0,63,0.00,,,0.00,Wunderground v.1.15,2013-03-18 15:03:00,
2013-03-18 10:08:00,71.1,56.0,29.77,WNW,301,10.0,14.0,59,0.00,,,0.00,Wunderground v.1.15,2013-03-18 15:08:00,
2013-03-18 10:14:00,71.6,57.9,29.77,NW,309,10.0,11.0,62,0.00,,,0.00,Wunderground v.1.15,2013-03-18 15:14:00,
2013-03-18 10:19:00,72.1,51.9,29.78,WNW,301,11.0,18.0,49,0.00,,,0.00,Wunderground v.1.15,2013-03-18 15:19:00,
2013-03-18 10:25:00,72.7,50.7,29.77,NW,326,12.0,13.0,46,0.00,,,0.00,Wunderground v.1.15,2013-03-18 15:25:00,
2013-03-18 10:30:00,73.0,49.8,29.78,NW,314,12.0,12.0,44,0.00,,,0.00,Wunderground v.1.15,2013-03-18 15:30:00,
2013-03-18 10:35:00,73.1,49.3,29.77,NW,323,13.0,15.0,43,0.00,,,0.00,Wunderground v.1.15,2013-03-18 15:35:00,
2013-03-18 10:41:00,73.2,48.7,29.78,NW,326,14.0,14.0,42,0.00,,,0.00,Wunderground v.1.15,2013-03-18 15:41:00,
2013-03-18 10:47:00,73.7,47.2,29.77,NW,310,13.0,16.0,39,0.00,,,0.00,Wunderground v.1.15,2013-03-18 15:47:00,
2013-03-18 10:53:00,73.6,47.1,29.78,NNW,347,13.0,14.0,39,0.00,,,0.00,Wunderground v.1.15,2013-03-18 15:53:00,
2013-03-18 10:59:00,73.5,47.0,29.78,NNE,29,13.0,15.0,39,0.00,,,0.00,Wunderground v.1.15,2013-03-18 15:59:00,
2013-03-18 11:04:00,73.7,47.2,29.78,North,357,12.0,18.0,39,0.00,,,0.00,Wunderground v.1.15,2013-03-18 16:04:00,
2013-03-18 11:09:00,73.8,47.3,29.78,NNW,347,13.0,18.0,39,0.00,,,0.00,Wunderground v.1.15,2013-03-18 16:09:00,
2013-03-18 11:14:00,74.0,47.5,29.79,NNW,347,12.0,15.0,39,0.00,,,0.00,Wunderground v.1.15,2013-03-18 16:14:00,
2013-03-18 11:19:00,74.3,47.7,29.80,North,5,12.0,15.0,39,0.00,,,0.00,Wunderground v.1.15,2013-03-18 16:19:00,
2013-03-18 11:24:00,74.5,47.9,29.80,NW,326,12.0,13.0,39,0.00,,,0.00,Wunderground v.1.15,2013-03-18 16:24:00,
2013-03-18 11:30:00,74.8,48.9,29.80,North,360,11.0,11.0,40,0.00,,,0.00,Wunderground v.1.15,2013-03-18 16:30:00,
2013-03-18 11:35:00,74.6,47.3,29.80,North,1,11.0,17.0,38,0.00,,,0.00,Wunderground v.1.15,2013-03-18 16:35:00,
2013-03-18 11:41:00,75.2,47.8,29.80,NNW,343,12.0,12.0,38,0.00,,,0.00,Wunderground v.1.15,2013-03-18 16:41:00,
2013-03-18 11:46:00,75.5,46.7,29.80,NNE,26,12.0,16.0,36,0.00,,,0.00,Wunderground v.1.15,2013-03-18 16:46:00,
2013-03-18 11:52:00,75.7,47.6,29.80,NNW,338,13.0,15.0,37,0.00,,,0.00,Wunderground v.1.15,2013-03-18 16:52:00,
2013-03-18 11:58:00,75.9,48.5,29.80,North,1,13.0,17.0,38,0.00,,,0.00,Wunderground v.1.15,2013-03-18 16:58:00,
2013-03-18 12:03:00,76.1,47.2,29.80,NE,43,13.0,15.0,36,0.00,,,0.00,Wunderground v.1.15,2013-03-18 17:03:00,
2013-03-18 12:09:00,76.4,46.7,29.80,NNW,344,13.0,15.0,35,0.00,,,0.00,Wunderground v.1.15,2013-03-18 17:09:00,
2013-03-18 12:15:00,76.3,44.3,29.80,North,9,13.0,19.0,32,0.00,,,0.00,Wunderground v.1.15,2013-03-18 17:15:00,
2013-03-18 12:20:00,76.2,44.2,29.80,NE,37,13.0,13.0,32,0.00,,,0.00,Wunderground v.1.15,2013-03-18 17:20:00,
2013-03-18 12:26:00,76.1,44.1,29.80,NNE,26,12.0,17.0,32,0.00,,,0.00,Wunderground v.1.15,2013-03-18 17:26:00,
2013-03-18 12:32:00,75.8,45.4,29.80,NNE,16,13.0,16.0,34,0.00,,,0.00,Wunderground v.1.15,2013-03-18 17:32:00,
2013-03-18 12:38:00,75.7,45.3,29.80,NNE,21,12.0,16.0,34,0.00,,,0.00,Wunderground v.1.15,2013-03-18 17:38:00,
2013-03-18 12:44:00,75.7,46.1,29.81,NE,36,12.0,19.0,35,0.00,,,0.00,Wunderground v.1.15,2013-03-18 17:44:00,
2013-03-18 12:49:00,75.5,47.4,29.81,North,8,13.0,19.0,37,0.00,,,0.00,Wunderground v.1.15,2013-03-18 17:49:00,
2013-03-18 12:55:00,76.1,45.7,29.81,NNE,22,11.0,17.0,34,0.00,,,0.00,Wunderground v.1.15,2013-03-18 17:55:00,
2013-03-18 13:01:00,75.9,47.8,29.81,NE,41,12.0,12.0,37,0.00,,,0.00,Wunderground v.1.15,2013-03-18 18:01:00,
2013-03-18 13:07:00,75.7,47.6,29.81,NE,36,11.0,14.0,37,0.00,,,0.00,Wunderground v.1.15,2013-03-18 18:07:00,
2013-03-18 13:13:00,75.6,48.2,29.82,North,357,11.0,13.0,38,0.00,,,0.00,Wunderground v.1.15,2013-03-18 18:13:00,
2013-03-18 13:19:00,75.9,47.8,29.82,NNE,28,10.0,13.0,37,0.00,,,0.00,Wunderground v.1.15,2013-03-18 18:19:00,
2013-03-18 13:25:00,76.1,49.3,29.81,NE,55,10.0,20.0,39,0.00,,,0.00,Wunderground v.1.15,2013-03-18 18:25:00,
2013-03-18 13:30:00,76.2,47.3,29.81,NNE,32,10.0,14.0,36,0.00,,,0.00,Wunderground v.1.15,2013-03-18 18:30:00,
2013-03-18 13:35:00,76.0,47.8,29.81,NNE,13,11.0,14.0,37,0.00,,,0.00,Wunderground v.1.15,2013-03-18 18:35:00,
2013-03-18 13:41:00,76.4,48.2,29.81,NNW,343,11.0,12.0,37,0.00,,,0.00,Wunderground v.1.15,2013-03-18 18:41:00,
2013-03-18 13:46:00,76.7,47.7,29.81,NNW,343,11.0,16.0,36,0.00,,,0.00,Wunderground v.1.15,2013-03-18 18:46:00,
2013-03-18 13:52:00,76.4,46.7,29.81,NNE,20,11.0,14.0,35,0.00,,,0.00,Wunderground v.1.15,2013-03-18 18:52:00,
2013-03-18 13:58:00,76.6,46.9,29.81,NE,37,12.0,14.0,35,0.00,,,0.00,Wunderground v.1.15,2013-03-18 18:58:00,
2013-03-18 14:03:00,76.6,48.4,29.81,NE,36,11.0,12.0,37,0.00,,,0.00,Wunderground v.1.15,2013-03-18 19:03:00,
2013-03-18 14:09:00,76.8,46.3,29.81,North,352,11.0,13.0,34,0.00,,,0.00,Wunderground v.1.15,2013-03-18 19:09:00,
2013-03-18 14:14:00,76.4,46.7,29.80,NNE,22,11.0,13.0,35,0.00,,,0.00,Wunderground v.1.15,2013-03-18 19:14:00,
2013-03-18 14:20:00,76.4,48.2,29.80,NE,45,10.0,10.0,37,0.00,,,0.00,Wunderground v.1.15,2013-03-18 19:20:00,
2013-03-18 14:25:00,76.6,46.9,29.80,NE,36,10.0,11.0,35,0.00,,,0.00,Wunderground v.1.15,2013-03-18 19:25:00,
2013-03-18 14:31:00,77.1,48.1,29.80,NE,48,8.0,11.0,36,0.00,,,0.00,Wunderground v.1.15,2013-03-18 19:31:00,
2013-03-18 14:43:00,76.8,48.6,29.80,NNE,32,11.0,11.0,37,0.00,,,0.00,Wunderground v.1.15,2013-03-18 19:43:00,
2013-03-18 14:49:00,77.0,47.2,29.80,NNE,22,10.0,12.0,35,0.00,,,0.00,Wunderground v.1.15,2013-03-18 19:49:00,
2013-03-18 14:55:00,76.8,46.3,29.79,North,352,9.0,13.0,34,0.00,,,0.00,Wunderground v.1.15,2013-03-18 19:55:00,
2013-03-18 15:00:00,76.7,46.2,29.79,ENE,67,9.0,13.0,34,0.00,,,0.00,Wunderground v.1.15,2013-03-18 20:00:00,
2013-03-18 15:05:00,76.5,48.3,29.79,NNE,19,9.0,16.0,37,0.00,,,0.00,Wunderground v.1.15,2013-03-18 20:05:00,
2013-03-18 15:11:00,76.6,49.1,29.79,North,10,9.0,9.0,38,0.00,,,0.00,Wunderground v.1.15,2013-03-18 20:11:00,
2013-03-18 15:16:00,76.7,47.7,29.79,NNE,28,10.0,14.0,36,0.00,,,0.00,Wunderground v.1.15,2013-03-18 20:16:00,
2013-03-18 15:21:00,76.9,48.6,29.79,NE,50,10.0,13.0,37,0.00,,,0.00,Wunderground v.1.15,2013-03-18 20:21:00,
2013-03-18 15:26:00,76.6,48.4,29.79,NNE,18,10.0,13.0,37,0.00,,,0.00,Wunderground v.1.15,2013-03-18 20:26:00,
2013-03-18 15:31:00,76.7,47.7,29.79,NE,50,10.0,12.0,36,0.00,,,0.00,Wunderground v.1.15,2013-03-18 20:31:00,
2013-03-18 15:37:00,76.8,49.3,29.79,NE,37,10.0,13.0,38,0.00,,,0.00,Wunderground v.1.15,2013-03-18 20:37:00,
2013-03-18 15:42:00,77.1,48.8,29.79,NE,49,11.0,13.0,37,0.00,,,0.00,Wunderground v.1.15,2013-03-18 20:42:00,
2013-03-18 15:47:00,77.2,47.4,29.79,North,1,10.0,14.0,35,0.00,,,0.00,Wunderground v.1.15,2013-03-18 20:47:00,
2013-03-18 15:52:00,77.3,49.0,29.79,NNE,22,9.0,16.0,37,0.00,,,0.00,Wunderground v.1.15,2013-03-18 20:52:00,
2013-03-18 15:57:00,77.0,48.7,29.79,NE,36,10.0,16.0,37,0.00,,,0.00,Wunderground v.1.15,2013-03-18 20:57:00,
2013-03-18 16:02:00,77.4,48.3,29.79,NNE,31,11.0,11.0,36,0.00,,,0.00,Wunderground v.1.15,2013-03-18 21:02:00,
2013-03-18 16:07:00,77.8,48.7,29.79,NNE,21,10.0,15.0,36,0.00,,,0.00,Wunderground v.1.15,2013-03-18 21:07:00,
2013-03-18 16:12:00,77.6,47.8,29.80,NE,44,11.0,15.0,35,0.00,,,0.00,Wunderground v.1.15,2013-03-18 21:12:00,
2013-03-18 16:17:00,77.3,47.5,29.80,NNE,32,12.0,15.0,35,0.00,,,0.00,Wunderground v.1.15,2013-03-18 21:17:00,
2013-03-18 16:22:00,77.5,47.7,29.80,North,10,12.0,18.0,35,0.00,,,0.00,Wunderground v.1.15,2013-03-18 21:22:00,
2013-03-18 16:28:00,76.8,47.1,29.80,NNE,20,11.0,20.0,35,0.00,,,0.00,Wunderground v.1.15,2013-03-18 21:28:00,
2013-03-18 16:33:00,76.9,46.4,29.80,NNE,28,12.0,12.0,34,0.00,,,0.00,Wunderground v.1.15,2013-03-18 21:33:00,
2013-03-18 16:39:00,76.8,47.1,29.80,NNE,31,11.0,14.0,35,0.00,,,0.00,Wunderground v.1.15,2013-03-18 21:39:00,
2013-03-18 16:45:00,75.9,47.8,29.81,NNW,345,11.0,14.0,37,0.00,,,0.00,Wunderground v.1.15,2013-03-18 21:45:00,
2013-03-18 16:51:00,75.6,47.5,29.81,North,354,10.0,11.0,37,0.00,,,0.00,Wunderground v.1.15,2013-03-18 21:51:00,
2013-03-18 16:57:00,76.0,48.6,29.81,North,8,9.0,13.0,38,0.00,,,0.00,Wunderground v.1.15,2013-03-18 21:57:00,
2013-03-18 17:02:00,76.1,47.9,29.81,North,11,9.0,12.0,37,0.00,,,0.00,Wunderground v.1.15,2013-03-18 22:02:00,
2013-03-18 17:07:00,75.8,47.7,29.81,NNE,19,10.0,12.0,37,0.00,,,0.00,Wunderground v.1.15,2013-03-18 22:07:00,
2013-03-18 17:12:00,75.0,47.7,29.81,NNW,345,9.0,10.0,38,0.00,,,0.00,Wunderground v.1.15,2013-03-18 22:12:00,
2013-03-18 17:18:00,74.9,47.6,29.81,NE,34,9.0,11.0,38,0.00,,,0.00,Wunderground v.1.15,2013-03-18 22:18:00,
2013-03-18 17:23:00,74.9,48.3,29.82,North,3,9.0,11.0,39,0.00,,,0.00,Wunderground v.1.15,2013-03-18 22:23:00,
2013-03-18 17:29:00,74.9,46.1,29.82,NNE,25,8.0,11.0,36,0.00,,,0.00,Wunderground v.1.15,2013-03-18 22:29:00,
2013-03-18 17:34:00,74.8,46.8,29.82,NE,43,9.0,14.0,37,0.00,,,0.00,Wunderground v.1.15,2013-03-18 22:34:00,
2013-03-18 17:39:00,74.7,47.4,29.83,NNE,13,10.0,14.0,38,0.00,,,0.00,Wunderground v.1.15,2013-03-18 22:39:00,
2013-03-18 17:44:00,74.5,47.2,29.83,NE,44,10.0,11.0,38,0.00,,,0.00,Wunderground v.1.15,2013-03-18 22:44:00,
2013-03-18 17:50:00,74.2,47.6,29.83,NE,53,10.0,11.0,39,0.00,,,0.00,Wunderground v.1.15,2013-03-18 22:50:00,
2013-03-18 17:56:00,73.8,48.0,29.83,NNW,345,10.0,11.0,40,0.00,,,0.00,Wunderground v.1.15,2013-03-18 22:56:00,
2013-03-18 18:02:00,73.5,47.0,29.84,NE,39,9.0,13.0,39,0.00,,,0.00,Wunderground v.1.15,2013-03-18 23:02:00,
2013-03-18 18:07:00,73.3,46.8,29.84,NNE,28,7.0,13.0,39,0.00,,,0.00,Wunderground v.1.15,2013-03-18 23:07:00,
2013-03-18 18:13:00,73.2,47.4,29.84,North,358,7.0,7.0,40,0.00,,,0.00,Wunderground v.1.15,2013-03-18 23:13:00,
2013-03-18 18:18:00,73.0,47.2,29.84,North,5,7.0,10.0,40,0.00,,,0.00,Wunderground v.1.15,2013-03-18 23:18:00,
2013-03-18 18:23:00,72.7,47.6,29.84,North,3,7.0,11.0,41,0.00,,,0.00,Wunderground v.1.15,2013-03-18 23:23:00,
2013-03-18 18:28:00,72.5,47.5,29.85,North,359,8.0,13.0,41,0.00,,,0.00,Wunderground v.1.15,2013-03-18 23:28:00,
2013-03-18 18:33:00,72.2,47.2,29.85,North,9,8.0,8.0,41,0.00,,,0.00,Wunderground v.1.15,2013-03-18 23:33:00,
2013-03-18 18:39:00,71.9,47.6,29.85,NE,34,7.0,8.0,42,0.00,,,0.00,Wunderground v.1.15,2013-03-18 23:39:00,
2013-03-18 18:44:00,71.7,46.7,29.85,NNE,32,6.0,9.0,41,0.00,,,0.00,Wunderground v.1.15,2013-03-18 23:44:00,
2013-03-18 18:49:00,71.5,47.8,29.85,NNE,19,7.0,9.0,43,0.00,,,0.00,Wunderground v.1.15,2013-03-18 23:49:00,
2013-03-18 18:57:00,71.3,47.6,29.85,NE,34,7.0,8.0,43,0.00,,,0.00,Wunderground v.1.15,2013-03-18 23:57:00,
2013-03-18 19:02:00,71.4,47.1,29.86,NNE,25,7.0,8.0,42,0.00,,,0.00,Wunderground v.1.15,2013-03-19 00:02:00,
2013-03-18 19:07:00,71.3,47.6,29.86,NE,36,7.0,8.0,43,0.00,,,0.00,Wunderground v.1.15,2013-03-19 00:07:00,
2013-03-18 19:12:00,71.2,47.6,29.86,NNE,26,6.0,8.0,43,0.00,,,0.00,Wunderground v.1.15,2013-03-19 00:12:00,
2013-03-18 19:18:00,70.9,47.9,29.87,NNE,31,6.0,8.0,44,0.00,,,0.00,Wunderground v.1.15,2013-03-19 00:18:00,
2013-03-18 19:24:00,70.3,47.9,29.87,NNE,27,6.0,7.0,45,0.00,,,0.00,Wunderground v.1.15,2013-03-19 00:24:00,
2013-03-18 19:30:00,69.7,47.4,29.87,NE,36,6.0,7.0,45,0.00,,,0.00,Wunderground v.1.15,2013-03-19 00:30:00,
2013-03-18 19:35:00,69.3,47.6,29.87,NE,34,6.0,7.0,46,0.00,,,0.00,Wunderground v.1.15,2013-03-19 00:35:00,
2013-03-18 19:40:00,68.8,47.2,29.88,NE,39,5.0,6.0,46,0.00,,,0.00,Wunderground v.1.15,2013-03-19 00:40:00,
2013-03-18 19:46:00,68.4,47.4,29.88,NE,38,5.0,6.0,47,0.00,,,0.00,Wunderground v.1.15,2013-03-19 00:46:00,
2013-03-18 19:51:00,67.9,47.5,29.88,NE,38,5.0,5.0,48,0.00,,,0.00,Wunderground v.1.15,2013-03-19 00:51:00,
2013-03-18 19:56:00,67.3,46.9,29.88,NE,34,4.0,5.0,48,0.00,,,0.00,Wunderground v.1.15,2013-03-19 00:56:00,
2013-03-18 20:02:00,66.8,47.0,29.89,NNE,28,3.0,3.0,49,0.00,,,0.00,Wunderground v.1.15,2013-03-19 01:02:00,
2013-03-18 20:08:00,66.3,47.1,29.89,NNE,28,3.0,4.0,50,0.00,,,0.00,Wunderground v.1.15,2013-03-19 01:08:00,
2013-03-18 20:14:00,65.9,47.3,29.89,NE,34,3.0,4.0,51,0.00,,,0.00,Wunderground v.1.15,2013-03-19 01:14:00,
2013-03-18 20:20:00,65.7,47.1,29.89,NE,36,4.0,4.0,51,0.00,,,0.00,Wunderground v.1.15,2013-03-19 01:20:00,
2013-03-18 20:25:00,65.3,47.2,29.89,NE,34,4.0,5.0,52,0.00,,,0.00,Wunderground v.1.15,2013-03-19 01:25:00,
2013-03-18 20:30:00,65.2,47.6,29.89,NE,34,4.0,6.0,53,0.00,,,0.00,Wunderground v.1.15,2013-03-19 01:30:00,
2013-03-18 20:36:00,64.9,47.4,29.89,NNE,28,4.0,6.0,53,0.00,,,0.00,Wunderground v.1.15,2013-03-19 01:36:00,
2013-03-18 20:41:00,64.8,47.8,29.90,NE,46,4.0,5.0,54,0.00,,,0.00,Wunderground v.1.15,2013-03-19 01:41:00,
2013-03-18 20:47:00,64.5,47.5,29.90,NE,56,4.0,5.0,54,0.00,,,0.00,Wunderground v.1.15,2013-03-19 01:47:00,
2013-03-18 20:52:00,64.1,47.1,29.90,NE,56,4.0,4.0,54,0.00,,,0.00,Wunderground v.1.15,2013-03-19 01:52:00,
2013-03-18 20:57:00,63.8,47.3,29.90,NE,55,4.0,6.0,55,0.00,,,0.00,Wunderground v.1.15,2013-03-19 01:57:00,
2013-03-18 21:02:00,63.8,47.3,29.90,NNE,30,4.0,8.0,55,0.00,,,0.00,Wunderground v.1.15,2013-03-19 02:02:00,
2013-03-18 21:08:00,64.0,47.5,29.90,ENE,66,5.0,8.0,55,0.00,,,0.00,Wunderground v.1.15,2013-03-19 02:08:00,
2013-03-18 21:13:00,63.8,47.3,29.90,NE,53,5.0,5.0,55,0.00,,,0.00,Wunderground v.1.15,2013-03-19 02:13:00,
2013-03-18 21:19:00,63.5,47.0,29.90,ENE,63,5.0,6.0,55,0.00,,,0.00,Wunderground v.1.15,2013-03-19 02:19:00,
2013-03-18 21:24:00,63.3,47.3,29.91,ENE,60,4.0,6.0,56,0.00,,,0.00,Wunderground v.1.15,2013-03-19 02:24:00,
2013-03-18 21:29:00,63.0,47.1,29.91,ENE,65,4.0,6.0,56,0.00,,,0.00,Wunderground v.1.15,2013-03-19 02:29:00,
2013-03-18 21:35:00,62.6,47.1,29.91,ENE,70,4.0,4.0,57,0.00,,,0.00,Wunderground v.1.15,2013-03-19 02:35:00,
2013-03-18 21:41:00,62.3,47.3,29.91,ENE,63,4.0,6.0,58,0.00,,,0.00,Wunderground v.1.15,2013-03-19 02:41:00,
2013-03-18 21:46:00,62.2,47.2,29.92,ENE,64,5.0,7.0,58,0.00,,,0.00,Wunderground v.1.15,2013-03-19 02:46:00,
2013-03-18 21:52:00,62.0,47.0,29.92,NE,56,5.0,6.0,58,0.00,,,0.00,Wunderground v.1.15,2013-03-19 02:52:00,
2013-03-18 21:57:00,61.7,47.2,29.91,ENE,64,5.0,6.0,59,0.00,,,0.00,Wunderground v.1.15,2013-03-19 02:57:00,
2013-03-18 22:03:00,61.3,47.3,29.92,NE,46,5.0,5.0,60,0.00,,,0.00,Wunderground v.1.15,2013-03-19 03:03:00,
2013-03-18 22:08:00,61.1,47.1,29.92,NE,46,4.0,5.0,60,0.00,,,0.00,Wunderground v.1.15,2013-03-19 03:08:00,
2013-03-18 22:14:00,61.2,47.2,29.92,ENE,63,6.0,9.0,60,0.00,,,0.00,Wunderground v.1.15,2013-03-19 03:14:00,
2013-03-18 22:19:00,61.2,47.2,29.92,NE,53,6.0,9.0,60,0.00,,,0.00,Wunderground v.1.15,2013-03-19 03:19:00,
2013-03-18 22:24:00,61.1,47.5,29.92,ENE,68,6.0,8.0,61,0.00,,,0.00,Wunderground v.1.15,2013-03-19 03:24:00,
2013-03-18 22:30:00,61.0,47.4,29.93,ENE,66,6.0,6.0,61,0.00,,,0.00,Wunderground v.1.15,2013-03-19 03:30:00,
2013-03-18 22:36:00,60.8,47.7,29.93,NE,56,6.0,9.0,62,0.00,,,0.00,Wunderground v.1.15,2013-03-19 03:36:00,
2013-03-18 22:41:00,60.7,47.6,29.92,ENE,68,6.0,9.0,62,0.00,,,0.00,Wunderground v.1.15,2013-03-19 03:41:00,
2013-03-18 22:47:00,60.3,47.2,29.92,ENE,59,7.0,9.0,62,0.00,,,0.00,Wunderground v.1.15,2013-03-19 03:47:00,
2013-03-18 22:52:00,59.9,47.3,29.92,East,79,6.0,7.0,63,0.00,,,0.00,Wunderground v.1.15,2013-03-19 03:52:00,
2013-03-18 22:58:00,59.6,47.0,29.92,ENE,68,6.0,7.0,63,0.00,,,0.00,Wunderground v.1.15,2013-03-19 03:58:00,
2013-03-18 23:00:00,59.4,47.2,29.92,ENE,73,6.0,6.0,64,0.00,,,0.00,Wunderground v.1.15,2013-03-19 04:00:00,
2013-03-18 23:01:00,59.3,47.1,29.92,NE,51,6.0,7.0,64,0.00,,,0.00,Wunderground v.1.15,2013-03-19 04:01:00,
2013-03-18 23:06:00,59.1,46.9,29.93,ENE,71,5.0,7.0,64,0.00,,,0.00,Wunderground v.1.15,2013-03-19 04:06:00,
2013-03-18 23:08:00,59.1,46.9,29.92,ENE,67,5.0,7.0,64,0.00,,,0.00,Wunderground v.1.15,2013-03-19 04:08:00,
2013-03-18 23:13:00,58.8,46.6,29.93,ENE,69,5.0,5.0,64,0.00,,,0.00,Wunderground v.1.15,2013-03-19 04:13:00,
2013-03-18 23:18:00,58.6,46.5,29.93,East,89,4.0,5.0,64,0.00,,,0.00,Wunderground v.1.15,2013-03-19 04:18:00,
2013-03-18 23:23:00,58.4,46.7,29.93,East,79,4.0,4.0,65,0.00,,,0.00,Wunderground v.1.15,2013-03-19 04:23:00,
2013-03-18 23:29:00,57.9,46.2,29.93,ENE,67,3.0,4.0,65,0.00,,,0.00,Wunderground v.1.15,2013-03-19 04:29:00,
2013-03-18 23:35:00,57.4,46.1,29.93,ENE,72,3.0,4.0,66,0.00,,,0.00,Wunderground v.1.15,2013-03-19 04:35:00,
2013-03-18 23:40:00,57.0,46.1,29.93,East,87,3.0,3.0,67,0.00,,,0.00,Wunderground v.1.15,2013-03-19 04:40:00,
2013-03-18 23:45:00,56.7,46.3,29.93,ENE,74,2.0,3.0,68,0.00,,,0.00,Wunderground v.1.15,2013-03-19 04:45:00,
2013-03-18 23:51:00,56.1,46.1,29.92,ENE,72,2.0,3.0,69,0.00,,,0.00,Wunderground v.1.15,2013-03-19 04:51:00,
2013-03-18 23:56:00,55.9,45.9,29.92,East,79,2.0,4.0,69,0.00,,,0.00,Wunderground v.1.15,2013-03-19 04:56:00,